Weather History for Fort Polk, LA

Change the Weather History Date:

Thursday, June 27, 2013

  Actual Average (KPOE) Record (KPOE)
Temperature  
Mean Temperature 85 °F -  
Max Temperature 97 °F 87 °F 100 °F (2012)
Min Temperature 73 °F 70 °F 68 °F (2005)
Cooling Degree Days 20    
Growing Degree Days 35 (Base 50)    
Moisture  
Dew Point 72 °F    
Average Humidity 74    
Maximum Humidity 94    
Minimum Humidity 37    
Precipitation  
Precipitation 0.00 in - - ()
Sea Level Pressure  
Sea Level Pressure 30.03 in    
Wind  
Wind Speed 1 mph (SW)    
Max Wind Speed 7 mph    
Max Gust Speed -    
Visibility 8 miles    
Events      
Averages and records for this station are not official NWS values.
T = Trace of Precipitation, MM = Missing Value Source: NWS Daily Summary

Daily Weather History Graph

Daily Weather History Graph

Search for Another Location

Airport:

Trip Planner

Search our weather history database for the weather conditions in past years. The results will help you decide how hot, cold, wet, or windy it might be!

Date:

Astronomy

Jun. 27, 2013 Rise Set
Actual Time 6:10 AM CDT 8:19 PM CDT
Civil Twilight 5:42 AM CDT 8:47 PM CDT
Nautical Twilight 5:08 AM CDT 9:20 PM CDT
Astronomical Twilight 4:32 AM CDT 9:57 PM CDT
Moon 11:39 PM CDT (6/27) 10:51 AM CDT (6/27)
Length of Visible Light 15h 04m
Length of Day
14h 08m
Waning Gibbous, 76% of the Moon is Illuminated
Jun 27
Waning Gibbous
Jun 29
Last Quarter
Jul 8
New
Jul 15
First Quarter
Jul 22
Full

Hourly Weather History & Observations

Time (CDT) Temp. Heat Index Dew Point Humidity Pressure Visibility Wind Dir Wind Speed Gust Speed Precip Events Conditions
12:54 AM 79.0 °F - 73.0 °F 82% 30.04 in 10.0 mi Variable 3.5 mph - N/A   Clear
1:54 AM 77.0 °F - 73.0 °F 88% 30.04 in 10.0 mi Calm Calm - N/A   Clear
2:54 AM 77.0 °F - 73.0 °F 88% 30.05 in 9.0 mi Calm Calm - N/A   Clear
3:54 AM 75.9 °F - 73.0 °F 91% 30.05 in 7.0 mi Calm Calm - N/A   Clear
4:54 AM 73.9 °F - 72.0 °F 93% 30.07 in 2.0 mi Calm Calm - N/A   Clear
4:58 AM 73.4 °F - 71.6 °F 94% 29.99 in 1.0 mi Calm Calm - N/A   Mist
5:09 AM 73.4 °F - 71.6 °F 94% 30.00 in 2.0 mi Calm Calm - N/A   Partly Cloudy
5:26 AM 73.4 °F - 71.6 °F 94% 30.00 in 3.0 mi Calm Calm - N/A   Clear
5:54 AM 73.0 °F - 71.1 °F 93% 30.08 in 3.0 mi Calm Calm - N/A   Clear
6:12 AM 73.4 °F - 69.8 °F 88% 30.01 in 1.5 mi Calm Calm - N/A   Clear
6:30 AM 73.4 °F - 69.8 °F 88% 30.01 in 2.0 mi Calm Calm - N/A   Partly Cloudy
6:54 AM 73.9 °F - 71.1 °F 91% 30.09 in 3.0 mi Calm Calm - N/A   Scattered Clouds
7:21 AM 75.2 °F - 73.4 °F 94% 30.02 in 5.0 mi Calm Calm - N/A   Partly Cloudy
7:54 AM 79.0 °F - 75.0 °F 88% 30.09 in 10.0 mi Calm Calm - N/A   Clear
8:54 AM 84.0 °F 91.2 °F 73.9 °F 72% 30.09 in 10.0 mi Calm Calm - N/A   Clear
9:54 AM 86.0 °F 92.2 °F 72.0 °F 63% 30.08 in 10.0 mi Variable 4.6 mph - N/A   Clear
10:54 AM 89.1 °F 94.1 °F 70.0 °F 53% 30.07 in 10.0 mi Variable 6.9 mph - N/A   Clear
11:54 AM 90.0 °F 94.5 °F 69.1 °F 50% 30.06 in 10.0 mi SW 3.5 mph - N/A   Clear
12:54 PM 93.0 °F 97.9 °F 69.1 °F 45% 30.05 in 10.0 mi Calm Calm - N/A   Clear
1:54 PM 93.9 °F 98.6 °F 68.0 °F 43% 30.04 in 10.0 mi Variable 3.5 mph - N/A   Clear
2:54 PM 95.0 °F 99.0 °F 66.9 °F 40% 30.02 in 10.0 mi Variable 3.5 mph - N/A   Clear
3:54 PM 96.1 °F 99.3 °F 66.0 °F 37% 30.01 in 10.0 mi Calm Calm - N/A   Clear
4:54 PM 97.0 °F 102.8 °F 69.1 °F 40% 29.99 in 10.0 mi Calm Calm - N/A   Clear
5:54 PM 93.9 °F 102.1 °F 72.0 °F 49% 29.98 in 10.0 mi Calm Calm - N/A   Clear
6:54 PM 91.9 °F 101.3 °F 73.9 °F 55% 29.99 in 10.0 mi Calm Calm - N/A   Clear
7:54 PM 86.0 °F 95.1 °F 75.0 °F 70% 29.99 in 10.0 mi Calm Calm - N/A   Clear
8:54 PM 81.0 °F 86.2 °F 73.9 °F 79% 29.99 in 10.0 mi Calm Calm - N/A   Clear
9:54 PM 79.0 °F - 73.0 °F 82% 29.99 in 10.0 mi Calm Calm - N/A   Clear
10:54 PM 79.0 °F - 73.0 °F 82% 29.99 in 10.0 mi Calm Calm - N/A   Clear
11:54 PM 77.0 °F - 73.0 °F 88% 30.02 in 10.0 mi Calm Calm - N/A   Clear